Regional Weather Roundup
Issued by NWS

Home | Current Version | Previous Version | Text Only | Print | Product List | Glossary On
Versions: 1 2 3 4 5 6 7 8 9 10 11 12 13 14 15 16 17 18 19 20 21 22 23 24 25 26 27 28 29 30 31 32 33 34 35 36 37 38 39 40 41 42 43 44 45 46 47 48 49 50
000
ASUS42 KKEY 261310
RWRKEY

FLORIDA REGIONAL WEATHER ROUNDUP FOR THE FLORIDA KEYS
NATIONAL WEATHER SERVICE KEY WEST FLORIDA
900 AM EDT TUE MAY 26 2015

...SOUTH FLORIDA AND THE KEYS...

CITY           SKY/WX    TMP DP  RH WIND       PRES   REMARKS
FORT MYERS     SUNNY     81  74  79 E10       30.18R
SW REGIONAL AP SUNNY     81  73  76 SE12      30.18S
NAPLES         SUNNY     81  74  79 E10       30.18R
MIAMI          PTSUNNY   84  69  60 E20       30.18R
WEST KENDALL   SUNNY     82  73  74 SE15      30.18R
HOMESTEAD      SUNNY     83  71  65 E14       30.17R
MARATHON       MOSUNNY   84  74  71 E12G20    30.15R HX  91
BOCA CHICA NAS PTSUNNY   84  73  69 E17       30.14R HX  90
KEY WEST INTL  SUNNY     83  74  74 E16       30.14R

...INTERNATIONAL WEATHER...

CITY           SKY/WX    TMP DP  RH WIND       PRES   REMARKS
NASSAU BAHAMAS MOSUNNY   82  70  65 E12       30.18R
CANCUN MEXICO  MOSUNNY   82  75  78 E7        30.04R
COZUMEL MEXICO MOSUNNY   79  73  83 CALM      30.03R

ADJACENT COASTAL WATERS...

STATION/POSITION TIME  SKY/WX   TEMP    WIND        PRES    WAVE
                                AIR SEA DIR/SP/G            HT/PER
                 (UTC)          (F)     (DEG/KT/KT) (MB)    (FT/S)
PULASKI SHOAL LI 1200            81     130/ 15/ 16 1019.8R
SAND KEY         1250            82     110/ 18/ 20 1020.4R
SOMBRERO KEY     1300            82     100/ 19/ 20 1021.4R
LONG KEY         1200            81 83  120/ 15/ 17 1021.5R
MOLASSES REEF    1300            81 83  100/ 16/ 17 1021.5R
FOWEY ROCKS      NOT AVBL

$$



USA.gov is the U.S. government's official web portal to all federal, state and local government web resources and services.